Weather History for La Porte, IN

Change the Weather History Date:

Tuesday, September 18, 2012

  Actual Average (KVPZ) Record (KVPZ)
Temperature  
Mean Temperature 52 °F 63 °F  
Max Temperature 61 °F 74 °F 89 °F (2007)
Min Temperature 45 °F 52 °F 43 °F (2009)
Degree Days  
Heating Degree Days 12 4  
Month to date heating degree days 39  
Since 1 July heating degree days 56  
Cooling Degree Days 0 2  
Month to date cooling degree days 53  
Year to date cooling degree days 689  
Growing Degree Days 2 (Base 50)    
Moisture  
Dew Point 45 °F    
Average Humidity 70    
Maximum Humidity 96    
Minimum Humidity 40    
Precipitation  
Precipitation 0.06 in 0.09 in 1.94 in (2013)
Month to date precipitation 1.98  
Year to date precipitation 27.52  
Sea Level Pressure  
Sea Level Pressure 29.87 in    
Wind  
Wind Speed 10 mph ()    
Max Wind Speed 24 mph    
Max Gust Speed 33 mph    
Visibility 9.3 miles    
Events Rain    
T = Trace of Precipitation, MM = Missing Value Source: Averaged Metar Reports

Daily Weather History Graph

Daily Weather History Graph

Search for Another Location

Airport:

Trip Planner

Search our weather history database for the weather conditions in past years. The results will help you decide how hot, cold, wet, or windy it might be!

Date:

Astronomy

Sep. 18, 2012 Rise Set
Actual Time 6:30 AM CDT 6:50 PM CDT
Civil Twilight 6:03 AM CDT 7:17 PM CDT
Nautical Twilight 5:30 AM CDT 7:50 PM CDT
Astronomical Twilight 4:56 AM CDT 8:23 PM CDT
Moon 9:33 AM CDT (9/18) 8:09 PM CDT (9/18)
Length of Visible Light 13h 14m
Length of Day
12h 19m
Waxing Crescent, 9% of the Moon is Illuminated
Sep 18
Waxing Crescent
Sep 22
First Quarter
Sep 29
Full
Oct 8
Last Quarter
Oct 15
New

Hourly Weather History & Observations

Time (CDT) Temp. Windchill Dew Point Humidity Pressure Visibility Wind Dir Wind Speed Gust Speed Precip Events Conditions
12:15 AM 59.4 °F - 57.6 °F 94% 29.76 in 10.0 mi NNW 11.5 mph - N/A   Drizzle
12:35 AM 59.4 °F - 56.8 °F 91% 29.75 in 10.0 mi North 12.7 mph - N/A   Overcast
12:55 AM 59.2 °F - 56.3 °F 90% 29.75 in 10.0 mi North 5.8 mph - N/A Rain Rain
1:15 AM 58.8 °F - 56.3 °F 91% 29.75 in 10.0 mi NNW 6.9 mph - N/A Rain Rain
1:35 AM 58.5 °F - 56.3 °F 93% 29.75 in 7.0 mi WNW 4.6 mph - 0.01 in   Drizzle
1:55 AM 58.1 °F - 56.5 °F 94% 29.75 in 5.0 mi NNW 5.8 mph - 0.05 in Rain Rain
2:15 AM 57.6 °F - 56.3 °F 96% 29.74 in 5.0 mi NNW 12.7 mph 17.3 mph N/A   Drizzle
2:35 AM 57.2 °F - 55.9 °F 96% 29.74 in 4.0 mi North 11.5 mph - 0.01 in   Drizzle
2:55 AM 57.2 °F - 55.9 °F 96% 29.74 in 5.0 mi NNW 12.7 mph 17.3 mph 0.01 in Rain Rain
3:15 AM 57.2 °F - 55.8 °F 95% 29.73 in 7.0 mi NNW 11.5 mph 18.4 mph N/A   Overcast
3:35 AM 56.8 °F - 55.4 °F 95% 29.73 in 7.0 mi North 11.5 mph - N/A   Light Drizzle
3:55 AM 56.7 °F - 54.9 °F 94% 29.74 in 7.0 mi NNW 12.7 mph 18.4 mph N/A Rain Rain
4:15 AM 56.3 °F - 54.7 °F 94% 29.74 in 5.0 mi NNW 12.7 mph 20.7 mph N/A   Drizzle
4:35 AM 56.3 °F - 54.5 °F 94% 29.74 in 5.0 mi NNW 15.0 mph 18.4 mph N/A Rain Rain
4:55 AM 55.9 °F - 54.1 °F 94% 29.74 in 5.0 mi NW 9.2 mph - N/A   Drizzle
5:15 AM 55.8 °F - 53.8 °F 93% 29.74 in 7.0 mi NNW 10.4 mph - N/A   Drizzle
5:35 AM 56.1 °F - 53.1 °F 89% 29.75 in 10.0 mi NNW 12.7 mph - N/A   Mostly Cloudy
5:55 AM 55.9 °F - 52.7 °F 89% 29.75 in 10.0 mi NNW 12.7 mph 19.6 mph N/A Rain Light Rain
6:15 AM 55.4 °F - 52.0 °F 88% 29.76 in 10.0 mi NW 11.5 mph 18.4 mph N/A   Overcast
6:35 AM 55.6 °F - 50.5 °F 83% 29.77 in 10.0 mi NNW 10.4 mph 20.7 mph N/A   Overcast
6:55 AM 54.9 °F - 49.6 °F 83% 29.77 in 10.0 mi NNW 10.4 mph - N/A   Overcast
7:15 AM 55.4 °F - 49.3 °F 80% 29.78 in 10.0 mi NW 10.4 mph 16.1 mph N/A   Mostly Cloudy
7:35 AM 55.4 °F - 50.2 °F 83% 29.78 in 10.0 mi NNW 11.5 mph 16.1 mph N/A   Mostly Cloudy
7:55 AM 56.3 °F - 49.1 °F 77% 29.79 in 10.0 mi NNW 15.0 mph 24.2 mph N/A   Mostly Cloudy
8:35 AM 58.6 °F - 47.8 °F 67% 29.79 in 10.0 mi NNW 10.4 mph 21.9 mph N/A   Overcast
8:55 AM 57.9 °F - 48.2 °F 70% 29.80 in 10.0 mi NNW 13.8 mph 21.9 mph N/A   Mostly Cloudy
9:15 AM 58.8 °F - 48.4 °F 68% 29.80 in 10.0 mi NNW 16.1 mph - N/A   Scattered Clouds
9:35 AM 57.0 °F - 48.2 °F 72% 29.82 in 10.0 mi NW 12.7 mph 19.6 mph N/A   Mostly Cloudy
9:55 AM 58.5 °F - 46.8 °F 65% 29.82 in 10.0 mi NW 17.3 mph 23.0 mph N/A   Mostly Cloudy
10:15 AM 58.1 °F - 45.5 °F 63% 29.83 in 10.0 mi NNW 17.3 mph 25.3 mph N/A   Mostly Cloudy
10:35 AM 57.9 °F - 46.6 °F 66% 29.83 in 10.0 mi NW 19.6 mph 31.1 mph N/A   Overcast
10:55 AM 57.2 °F - 45.1 °F 64% 29.84 in 10.0 mi NNW 16.1 mph 29.9 mph N/A   Overcast
11:15 AM 57.2 °F - 45.0 °F 64% 29.85 in 10.0 mi NNW 15.0 mph 31.1 mph N/A   Overcast
11:35 AM 59.7 °F - 44.6 °F 57% 29.86 in 10.0 mi NW 19.6 mph 26.5 mph N/A   Mostly Cloudy
11:55 AM 57.9 °F - 43.7 °F 59% 29.86 in 10.0 mi NNW 17.3 mph 27.6 mph N/A   Mostly Cloudy
12:15 PM 60.3 °F - 42.6 °F 52% 29.87 in 10.0 mi NNW 20.7 mph 31.1 mph N/A   Scattered Clouds
12:35 PM 60.4 °F - 43.3 °F 53% 29.87 in 10.0 mi NNW 17.3 mph 27.6 mph N/A   Mostly Cloudy
12:55 PM 59.0 °F - 40.8 °F 51% 29.88 in 10.0 mi North 23.0 mph 28.8 mph N/A   Mostly Cloudy
1:15 PM 59.5 °F - 38.3 °F 45% 29.88 in 10.0 mi NNW 19.6 mph 32.2 mph N/A   Scattered Clouds
1:35 PM 58.3 °F - 37.2 °F 45% 29.88 in 10.0 mi NNW 24.2 mph 33.4 mph N/A   Mostly Cloudy
2:15 PM 59.9 °F - 35.2 °F 40% 29.89 in 10.0 mi NNW 21.9 mph 31.1 mph N/A   Scattered Clouds
2:35 PM 58.5 °F - 35.8 °F 43% 29.90 in 10.0 mi NW 19.6 mph 26.5 mph N/A   Scattered Clouds
2:55 PM 57.0 °F - 37.8 °F 49% 29.91 in 10.0 mi North 18.4 mph 26.5 mph N/A   Scattered Clouds
3:15 PM 57.2 °F - 36.0 °F 45% 29.91 in 10.0 mi NNW 18.4 mph 26.5 mph N/A   Scattered Clouds
3:35 PM 59.9 °F - 36.0 °F 41% 29.92 in 10.0 mi NNW 17.3 mph 27.6 mph N/A   Mostly Cloudy
3:55 PM 57.6 °F - 33.8 °F 41% 29.93 in 10.0 mi NW 16.1 mph 19.6 mph N/A   Scattered Clouds
4:15 PM 56.1 °F - 35.8 °F 46% 29.93 in 10.0 mi NNW 12.7 mph 20.7 mph N/A   Mostly Cloudy
4:35 PM 57.2 °F - 35.2 °F 44% 29.94 in 10.0 mi NW 10.4 mph 19.6 mph N/A   Mostly Cloudy
4:55 PM 56.3 °F - 35.8 °F 46% 29.94 in 10.0 mi NNW 9.2 mph - N/A   Mostly Cloudy
5:15 PM 58.1 °F - 35.6 °F 43% 29.94 in 10.0 mi NNW 6.9 mph - N/A   Overcast
5:35 PM 56.3 °F - 35.8 °F 46% 29.95 in 10.0 mi NNW 9.2 mph - N/A   Mostly Cloudy
5:55 PM 55.2 °F - 34.2 °F 45% 29.95 in 10.0 mi NW 9.2 mph - N/A   Scattered Clouds
6:15 PM 54.9 °F - 34.0 °F 45% 29.96 in 10.0 mi WNW 4.6 mph - N/A   Scattered Clouds
6:35 PM 54.5 °F - 34.9 °F 48% 29.96 in 10.0 mi NNW 5.8 mph - N/A   Mostly Cloudy
6:55 PM 53.8 °F - 36.0 °F 51% 29.97 in 10.0 mi NNW 9.2 mph - N/A Rain Light Rain
7:15 PM 51.6 °F - 39.0 °F 62% 29.97 in 10.0 mi Calm Calm - N/A   Overcast
7:35 PM 51.4 °F - 40.5 °F 66% 29.98 in 10.0 mi West 4.6 mph - N/A   Overcast
7:55 PM 50.5 °F - 39.4 °F 66% 29.99 in 10.0 mi West 3.5 mph - N/A   Mostly Cloudy
8:15 PM 48.6 °F - 37.8 °F 66% 29.99 in 10.0 mi West 4.6 mph - N/A   Scattered Clouds
8:35 PM 49.6 °F - 39.0 °F 67% 29.99 in 10.0 mi West 4.6 mph - N/A   Mostly Cloudy
8:55 PM 48.4 °F - 39.4 °F 71% 30.00 in 10.0 mi Calm Calm - N/A   Overcast
9:15 PM 47.3 °F - 41.4 °F 80% 30.01 in 10.0 mi Calm Calm - N/A   Overcast
9:35 PM 46.8 °F - 39.6 °F 76% 30.01 in 10.0 mi WSW 3.5 mph - N/A   Mostly Cloudy
9:55 PM 46.6 °F - 40.8 °F 80% 30.02 in 10.0 mi WSW 3.5 mph - N/A   Mostly Cloudy
10:15 PM 48.0 °F - 37.0 °F 66% 30.02 in 10.0 mi West 3.5 mph - N/A   Mostly Cloudy
10:35 PM 45.9 °F 44.6 °F 39.4 °F 78% 30.02 in 10.0 mi West 3.5 mph - N/A   Mostly Cloudy
10:55 PM 46.4 °F 45.2 °F 40.6 °F 80% 30.02 in 10.0 mi West 3.5 mph - N/A   Mostly Cloudy
11:15 PM 45.9 °F 44.6 °F 41.2 °F 84% 30.03 in 10.0 mi West 3.5 mph - N/A   Overcast
11:35 PM 46.8 °F - 40.3 °F 78% 30.04 in 10.0 mi West 4.6 mph - N/A   Overcast
11:55 PM 45.3 °F 43.0 °F 40.3 °F 83% 30.04 in 10.0 mi WSW 4.6 mph - N/A   Mostly Cloudy